Torna al catalogo

ONEWEB-0231

AttivoComunicazioniPO
NORAD 48782·PAYLOAD·🇬🇧 United Kingdom

Lanciato May 28, 2021 da Vostochny Cosmodrome

Loading…

Prossimi Passaggi (prossime 24 ore)

TLE

AggiornatoSource: CelesTrak SupGP

Epoca: Sep 14, 2026, 21:05 UTC

1 48782C 21045R   26257.87865000  .00003448  00000+0  91693-2 0  2572
2 48782  87.8987 241.3157 0002035  78.7150 316.6728 13.15545395    14

Traccia ONEWEB-0231 in tempo reale con AllMySat

Download on the App Store